Location: Central Coast
(33.3208°S, 151.2336°E)
Time: 02:52:06
(UTC+11:00)

Vanguard 1 Rocket - Visible Passes

Search period start: 21 February 2018 00:00
Search period end: 03 March 2018 00:00
Orbit: 655 x 4222 km, 34.3° (Epoch: 19 February)

Date Brightness Start Highest point End Pass type
(mag) Time Alt. Az. Time Alt. Az. Time Alt. Az.
26 Feb 11.3 06:20:08 10° NNE 06:23:54 11° NNE 06:27:11 10° NE visible
28 Feb 11.1 06:17:41 10° N 06:27:27 18° NNE 06:34:23 10° ENE visible
01 Mar 11.5 05:09:39 10° NNE 05:14:20 11° NNE 05:18:25 10° NE visible
02 Mar 10.8 06:17:31 10° NNW 06:30:53 26° NNE 06:39:22 10° E visible
